This demonstration page uses our WeatherBlox Daily Observations layout. Learn more.

Left ArrowRight Arrow

36.19886, -115.1175

Hourly Observations for August 17, 2015

Temp ( °F °C ) Dew Point ( °F °C ) Humidity (%) Winds ( mph kmh ) Pressure ( in mb ) Visibility ( mi km ) Precip ( " mm )
12:53 am 00:53 Clear 91 32.8 38 3.3 15 15 NNW 6 9 29.74 1007 10 16 0.00 0.00
1:53 am 01:53 Clear 88 31.1 38 3.3 17 17 NW 5 7 29.74 1007 10 16 0.00 0.00
2:53 am 02:53 Clear 88 31.1 39 3.9 18 18 Calm 29.74 1007 10 16 0.00 0.00
3:53 am 03:53 Clear 86 30 40 4.4 20 20 NNE 3 6 29.73 1007 10 16 0.00 0.00
4:53 am 04:53 Clear 84 28.9 40 4.4 21 21 N 3 6 29.75 1007 10 16 0.00 0.00
5:53 am 05:53 Clear 83 28.3 41 5 23 23 N 6 9 29.77 1008 10 16 0.00 0.00
6:53 am 06:53 Sunny 83 28.3 41 5 23 23 N 7 11 29.80 1009 10 16 0.00 0.00
7:53 am 07:53 Sunny 86 30 43 6.1 22 22 NNW 3 6 29.81 1009 10 16 0.00 0.00
8:53 am 08:53 Sunny 90 32.2 43 6.1 19 19 Calm 29.80 1009 10 16 0.00 0.00
9:53 am 09:53 Sunny 96 35.6 41 5 15 15 Calm 29.80 1009 10 16 0.00 0.00
10:53 am 10:53 Sunny 99 37.2 41 5 14 14 S 6 9 29.79 1009 10 16 0.00 0.00
11:53 am 11:53 Sunny 103 39.4 40 4.4 11 11 VRB 3 6 29.77 1008 10 16 0.00 0.00
12:53 pm 12:53 Sunny 106 41.1 37 2.8 9 9 SE 9 15 29.74 1007 10 16 0.00 0.00
1:53 pm 13:53 Sunny 107 41.7 37 2.8 9 9 VRB 5 7 29.72 1006 10 16 0.00 0.00
2:53 pm 14:53 Sunny 108 42.2 35 1.7 8 8 undefined N/A 29.70 1006 10 16 0.00 0.00
3:53 pm 15:53 Sunny 109 42.8 35 1.7 8 8 VRB 6 9 29.67 1005 10 16 0.00 0.00
4:53 pm 16:53 Sunny 108 42.2 35 1.7 8 8 VRB 5 7 29.66 1005 10 16 0.00 0.00
5:53 pm 17:53 Sunny 107 41.7 36 2.2 9 9 S 8 13 29.66 1004 10 16 0.00 0.00
6:53 pm 18:53 Sunny 107 41.7 35 1.7 8 8 SSW 13 20 29.65 1004 10 16 0.00 0.00
7:53 pm 19:53 Clear 105 40.6 34 1.1 8 8 WSW 13 20 29.66 1004 10 16 0.00 0.00
8:53 pm 20:53 Clear 102 38.9 34 1.1 9 9 SW 9 15 29.67 1005 10 16 0.00 0.00
9:53 pm 21:53 Clear 100 37.8 35 1.7 10 10 WSW 5 7 29.67 1005 10 16 0.00 0.00
10:53 pm 22:53 Clear 98 36.7 36 2.2 11 11 WSW 5 7 29.68 1005 10 16 0.00 0.00
11:53 pm 23:53 Clear 92 33.3 38 3.3 15 15 NW 7 11 29.70 1006 10 16 0.00 0.00

Powered by AerisWeather